Simultaneous Nadir Overpasses (SNOs) Predictions

Prediction of SNOs between AQUA and METOP-C Satellite Orbit:

Table of predicted SNOs for the next 14.0 days since TLE Epoch: 4/30/2022
Index Date (AQUA) Time (AQUA) Lat,Lon (AQUA) SZA (AQUA ) Date (METOP-C) Time (METOP-C) Lat,Lon (METOP-C) SZA (METOP-C ) Distance(km) Time Diff (sec)
1 05/02/2022 06:52:48 73.86, 71.38 58.43 05/02/2022 06:52:07 73.86, 71.47 58.44 2.79 41
2 05/02/2022 07:42:14 -73.88,-121.03 121.56 05/02/2022 07:42:47 -73.90,-121.10 121.54 3.08 33
3 05/05/2022 01:37:06 -73.43, -28.78 122.84 05/05/2022 01:35:57 -73.36, -30.60 122.85 58.37 69
4 05/05/2022 02:26:41 73.85, 137.95 57.60 05/05/2022 02:26:28 73.84, 137.84 57.60 3.59 13
5 05/05/2022 03:16:08 -73.92, -54.57 122.34 05/05/2022 03:17:07 -73.93, -54.61 122.33 2.10 59
6 05/07/2022 21:11:06 -73.82, 36.91 123.21 05/07/2022 21:10:08 -73.83, 36.90 123.19 1.48 58
7 05/07/2022 22:00:34 73.88,-155.59 56.85 05/07/2022 22:00:47 73.91,-155.59 56.87 2.97 13
8 05/07/2022 22:50:10 -74.41, 10.83 122.60 05/07/2022 22:51:18 -74.40, 12.97 122.67 64.19 68
9 05/10/2022 16:44:57 -73.85, 103.40 123.94 05/10/2022 16:44:27 -73.85, 103.36 123.92 1.46 30
10 05/10/2022 17:34:25 73.91, -89.11 56.13 05/10/2022 17:35:06 73.92, -89.15 56.13 1.50 41
11 05/13/2022 11:29:21 73.81, 2.40 55.32 05/13/2022 11:28:08 73.75, 2.19 55.28 9.38 73
12 05/13/2022 12:18:48 -73.87, 169.91 124.63 05/13/2022 12:18:47 -73.86, 169.80 124.63 3.50 1



Historial Predications of SNOs between AQUA and METOP-C
